Weather History for Bennington, VT

Change the Weather History Date:

Sunday, February 24, 2013

  Actual Average Record
Temperature  
Mean Temperature 33 °F 27 °F  
Max Temperature 36 °F 37 °F 35 °F (2014)
Min Temperature 30 °F 17 °F 19 °F (2014)
Degree Days  
Heating Degree Days 32 38  
Month to date heating degree days 976 971  
Since 1 July heating degree days 4664 5102  
Cooling Degree Days 0 0  
Month to date cooling degree days 0 0  
Year to date cooling degree days 0 0  
Moisture  
Dew Point 30 °F    
Average Humidity 81    
Maximum Humidity 92    
Minimum Humidity 70    
Precipitation  
Precipitation 0.13 in 0.10 in - ()
Month to date precipitation 0.87 1.87  
Year to date precipitation 2.32 4.62  
Sea Level Pressure  
Sea Level Pressure 29.81 in    
Wind  
Wind Speed 4 mph (West)    
Max Wind Speed 13 mph    
Max Gust Speed 17 mph    
Visibility 4 miles    
Events Snow    
T = Trace of Precipitation, MM = Missing Value Source: NWS Daily Summary

Daily Weather History Graph

Daily Weather History Graph

Search for Another Location

Airport:

Trip Planner

Search our weather history database for the weather conditions in past years. The results will help you decide how hot, cold, wet, or windy it might be!

Date:

Astronomy

Feb. 24, 2013 Rise Set
Actual Time 6:36 AM EST 5:36 PM EST
Civil Twilight 6:07 AM EST 6:05 PM EST
Nautical Twilight 5:35 AM EST 6:37 PM EST
Astronomical Twilight 5:02 AM EST 7:10 PM EST
Moon 4:44 PM EST (2/24) 5:32 AM EST (2/24)
Length of Visible Light 11h 57m
Length of Day
10h 59m
Waxing Gibbous, 99% of the Moon is Illuminated
Feb 24
Waxing Gibbous
Feb 25
Full
Mar 4
Last Quarter
Mar 11
New
Mar 19
First Quarter

Hourly Weather History & Observations

Time (EST) Temp. Windchill Dew Point Humidity Pressure Visibility Wind Dir Wind Speed Gust Speed Precip Events Conditions
12:54 AM 35.1 °F 30.1 °F 28.9 °F 78% 29.85 in 10.0 mi ESE 5.8 mph - 0.00 in   Overcast
1:54 AM 36.0 °F - 28.9 °F 76% 29.83 in 10.0 mi Calm Calm - N/A   Overcast
2:54 AM 35.1 °F 32.2 °F 28.9 °F 78% 29.82 in 10.0 mi Variable 3.5 mph - N/A   Overcast
3:54 AM 34.0 °F - 30.0 °F 85% 29.81 in 10.0 mi Calm Calm - N/A   Overcast
4:54 AM 33.1 °F - 30.0 °F 89% 29.83 in 4.0 mi Calm Calm - 0.00 in Snow Light Snow
4:57 AM 33.8 °F - 30.2 °F 87% 29.81 in 2.5 mi Calm Calm - 0.01 in Snow Light Snow
5:06 AM 33.8 °F - 30.2 °F 87% 29.81 in 1.5 mi Calm Calm - 0.01 in Snow Light Snow
5:42 AM 33.8 °F - 30.2 °F 87% 29.80 in 2.0 mi Calm Calm - 0.04 in Snow Light Snow
5:54 AM 33.1 °F 30.0 °F 30.9 °F 92% 29.82 in 2.0 mi ESE 3.5 mph - 0.04 in Snow Light Snow
6:05 AM 33.8 °F - 30.2 °F 87% 29.79 in 1.5 mi Calm Calm - 0.01 in Snow Light Snow
6:13 AM 33.8 °F - 30.2 °F 87% 29.79 in 2.0 mi Calm Calm - 0.01 in Snow Light Snow
6:23 AM 33.8 °F 30.8 °F 30.2 °F 87% 29.79 in 4.0 mi ESE 3.5 mph - 0.01 in Snow Light Snow
7:19 AM 33.8 °F 30.8 °F 30.2 °F 87% 29.78 in 2.5 mi North 3.5 mph - 0.00 in Snow Light Snow
7:26 AM 33.8 °F - 30.2 °F 87% 29.79 in 3.0 mi Calm Calm - 0.00 in   Overcast
7:52 AM 33.8 °F - 30.2 °F 87% 29.78 in 1.8 mi Calm Calm - 0.00 in Snow Light Snow
7:54 AM 33.1 °F - 30.9 °F 92% 29.81 in 1.5 mi Calm Calm - 0.00 in Snow Light Snow
8:23 AM 33.8 °F - 30.2 °F 87% 29.78 in 3.0 mi Calm Calm - 0.00 in Snow Light Snow
8:42 AM 33.8 °F - 30.2 °F 87% 29.78 in 7.0 mi Calm Calm - 0.00 in   Overcast
8:54 AM 34.0 °F - 30.9 °F 89% 29.80 in 7.0 mi Calm Calm - 0.00 in   Overcast
9:03 AM 33.8 °F - 32.0 °F 93% 29.77 in 5.0 mi Calm Calm - 0.01 in   Overcast
9:18 AM 33.8 °F - 30.2 °F 87% 29.77 in 5.0 mi Calm Calm - 0.01 in   Overcast
9:37 AM 33.8 °F - 32.0 °F 93% 29.76 in 3.0 mi Calm Calm - 0.01 in Snow Light Snow
9:54 AM 34.0 °F - 32.0 °F 92% 29.78 in 3.0 mi Calm Calm - 0.01 in Snow Light Snow
10:35 AM 35.6 °F - 32.0 °F 87% 29.76 in 9.0 mi Calm Calm - 0.00 in   Overcast
10:54 AM 35.1 °F - 32.0 °F 89% 29.78 in 5.0 mi Calm Calm - 0.00 in   Overcast
11:54 AM 35.1 °F 32.2 °F 33.1 °F 92% 29.77 in 4.0 mi WNW 3.5 mph - N/A   Overcast
12:10 PM 35.6 °F 32.8 °F 32.0 °F 87% 29.75 in 4.0 mi NW 3.5 mph - N/A   Overcast
12:28 PM 35.6 °F 32.8 °F 32.0 °F 87% 29.75 in 2.5 mi WNW 3.5 mph - 0.01 in   Overcast
12:34 PM 35.6 °F 32.8 °F 32.0 °F 87% 29.74 in 3.0 mi WNW 3.5 mph - 0.01 in Snow Light Snow
12:41 PM 35.6 °F - 32.0 °F 87% 29.74 in 3.0 mi Calm Calm - 0.01 in   Overcast
12:50 PM 35.6 °F - 32.0 °F 87% 29.74 in 3.0 mi Calm Calm - 0.01 in   Overcast
12:54 PM 35.1 °F 32.2 °F 32.0 °F 89% 29.76 in 2.5 mi WNW 3.5 mph - 0.01 in   Overcast
1:12 PM 35.6 °F 30.7 °F 32.0 °F 87% 29.75 in 3.0 mi WNW 5.8 mph - N/A   Overcast
1:34 PM 33.8 °F 29.6 °F 32.0 °F 93% 29.74 in 2.5 mi West 4.6 mph - N/A   Overcast
1:52 PM 35.6 °F 32.8 °F 32.0 °F 87% 29.74 in 3.0 mi West 3.5 mph - N/A   Overcast
1:54 PM 35.1 °F 32.2 °F 32.0 °F 89% 29.76 in 3.0 mi West 3.5 mph - N/A   Overcast
2:28 PM 33.8 °F 29.6 °F 32.0 °F 93% 29.74 in 3.0 mi West 4.6 mph - 0.00 in Snow Light Snow
2:40 PM 33.8 °F 29.6 °F 32.0 °F 93% 29.74 in 2.0 mi West 4.6 mph - 0.01 in Snow Light Snow
2:50 PM 33.8 °F - 32.0 °F 93% 29.74 in 1.5 mi Calm Calm - 0.01 in Snow Light Snow
2:54 PM 34.0 °F - 32.0 °F 92% 29.76 in 1.2 mi Calm Calm - 0.01 in Snow Light Snow
3:54 PM 33.1 °F 26.1 °F 30.0 °F 89% 29.78 in 2.0 mi WSW 8.1 mph - 0.01 in   Overcast
4:29 PM 32.0 °F 25.6 °F 28.4 °F 87% 29.77 in 0.8 mi SW 6.9 mph - 0.01 in Snow Light Snow
4:54 PM 32.0 °F 24.8 °F 28.9 °F 88% 29.80 in 1.5 mi WSW 8.1 mph - 0.01 in Snow Light Snow
5:09 PM 32.0 °F 25.6 °F 28.4 °F 87% 29.79 in 1.2 mi WSW 6.9 mph - 0.01 in Snow Light Snow
5:20 PM 32.0 °F 23.6 °F 28.4 °F 87% 29.79 in 2.0 mi WSW 10.4 mph 20.7 mph 0.01 in Snow Light Snow
5:54 PM 32.0 °F 24.8 °F 28.0 °F 85% 29.83 in 3.0 mi West 8.1 mph - 0.02 in Snow Light Snow
6:08 PM 32.0 °F 24.8 °F 28.4 °F 87% 29.81 in 3.0 mi WSW 8.1 mph 16.1 mph 0.00 in Snow Light Snow
6:49 PM 30.2 °F 23.4 °F 28.4 °F 93% 29.84 in 3.0 mi Variable 6.9 mph - 0.00 in Snow Light Snow
7:32 PM 30.2 °F 24.3 °F 28.4 °F 93% 29.86 in 3.0 mi Variable 5.8 mph - 0.00 in Snow Light Snow
7:54 PM 30.9 °F 25.2 °F 28.0 °F 89% 29.89 in 3.0 mi West 5.8 mph - 0.00 in Snow Light Snow
8:02 PM 30.2 °F 23.4 °F 28.4 °F 93% 29.87 in 1.8 mi WSW 6.9 mph - 0.00 in Snow Light Snow
8:29 PM 30.2 °F 22.6 °F 28.4 °F 93% 29.88 in 1.5 mi West 8.1 mph - 0.01 in Snow Light Snow
8:40 PM 30.2 °F 22.6 °F 26.6 °F 86% 29.88 in 2.0 mi West 8.1 mph 16.1 mph 0.01 in Snow Light Snow
8:49 PM 30.2 °F 22.6 °F 26.6 °F 86% 29.89 in 2.5 mi West 8.1 mph - 0.01 in Snow Light Snow
8:54 PM 30.9 °F 25.2 °F 27.0 °F 85% 29.91 in 2.5 mi West 5.8 mph - 0.01 in Snow Light Snow
9:08 PM 30.2 °F 22.6 °F 26.6 °F 86% 29.89 in 3.0 mi West 8.1 mph - 0.00 in Snow Light Snow
9:37 PM 30.2 °F 23.4 °F 26.6 °F 86% 29.90 in 4.0 mi West 6.9 mph - 0.00 in   Overcast
9:54 PM 30.0 °F 22.4 °F 27.0 °F 88% 29.93 in 6.0 mi West 8.1 mph - 0.00 in   Overcast
10:10 PM 30.2 °F 21.9 °F 26.6 °F 86% 29.90 in 8.0 mi West 9.2 mph - N/A   Overcast
10:37 PM 30.2 °F 22.6 °F 26.6 °F 86% 29.91 in 9.0 mi West 8.1 mph - N/A   Overcast
10:54 PM 30.0 °F 23.2 °F 27.0 °F 88% 29.94 in 9.0 mi West 6.9 mph - N/A   Overcast
11:25 PM 30.2 °F 25.4 °F 26.6 °F 86% 29.92 in 8.0 mi West 4.6 mph - N/A   Overcast
11:39 PM 30.2 °F 25.4 °F 26.6 °F 86% 29.93 in 9.0 mi West 4.6 mph - N/A   Overcast
11:54 PM 30.0 °F 25.2 °F 26.1 °F 85% 29.95 in 9.0 mi West 4.6 mph - N/A   Overcast